This is the latest recevied weather packets stored in our database for station/object NR6G-15. If no packets are shown the sender has not sent any weather packets the latest 10 day(s).
| Time | Temp. | Humidity | Pressure | Rain* | Wind** | Luminosity | Snow |
|---|---|---|---|---|---|---|---|
| 1788027953 | 18.33° C | 68% | 1024.7 hPa | 0 mm | - | - | - |
| 1788027653 | 18.33° C | 68% | 1024.7 hPa | 0 mm | - | - | - |
| 1788027353 | 18.89° C | 68% | 1024.8 hPa | 0 mm | - | - | - |
| 1788027053 | 18.89° C | 65% | 1024.8 hPa | 0 mm | - | - | - |
| 1788026753 | 18.89° C | 66% | 1024.8 hPa | 0 mm | - | - | - |
| 1788026453 | 18.33° C | 64% | 1024.8 hPa | 0 mm | - | - | - |
| 1788026153 | 18.33° C | 65% | 1024.8 hPa | 0 mm | - | - | - |
| 1788025629 | 18.89° C | 64% | 1024.8 hPa | 0 mm | - | - | - |
| 1788025328 | 18.89° C | 60% | 1024.9 hPa | 0 mm | - | - | - |
| 1788025028 | 18.89° C | 64% | 1024.8 hPa | 0 mm | - | - | - |
| 1788024728 | 18.33° C | 68% | 1024.8 hPa | 0 mm | - | - | - |
| 1788024428 | 18.33° C | 63% | 1024.8 hPa | 0 mm | - | - | - |
| 1788024041 | 18.33° C | 69% | 1024.9 hPa | 0 mm | - | - | - |
| 1788023659 | 18.33° C | 72% | 1024.8 hPa | 0 mm | - | - | - |
| 1788023057 | 17.78° C | 72% | 1024.9 hPa | 0 mm | - | - | - |
| 1788022757 | 17.78° C | 71% | 1024.8 hPa | 0 mm | - | - | - |
| 1788022457 | 17.78° C | 72% | 1024.8 hPa | 0 mm | - | - | - |
| 1788022158 | 18.33° C | 69% | 1024.8 hPa | 0 mm | - | - | - |
| 1788021858 | 17.78° C | 70% | 1024.7 hPa | 0 mm | - | - | - |
| 1788021557 | 17.78° C | 70% | 1024.7 hPa | 0 mm | - | - | - |
| 1788021257 | 17.78° C | 72% | 1024.5 hPa | 0 mm | - | - | - |
| 1788020957 | 17.78° C | 72% | 1024.6 hPa | 0 mm | - | - | - |
| 1788020657 | 17.22° C | 73% | 1024.5 hPa | 0 mm | - | - | - |
| 1788020358 | 17.22° C | 72% | 1024.5 hPa | 0 mm | - | - | - |
| 1788020057 | 17.22° C | 72% | 1024.5 hPa | 0 mm | - | - | - |
* Rain latest hour (hover to see other rain measurements)
** Current wind speed in m/s (hover to see current wind gust speed)